CW8198 Weather Reports


Display with metric or nautical units.
time (UTC)temp
F
wind
direction
speed
MPH
gust
MPH
rain 1hr
in
rain 24hr
in
rain mn
in
humidity
%
barometer
mb
20260901171916 90 196 4.0 9.0 0.00 0.00 0.00 53 1013.3
20260901171416 90 167 4.0 7.0 0.00 0.00 0.00 53 1013.1
20260901170916 90 153 4.0 8.0 0.00 0.00 0.00 53 1013.1
20260901170416 89 188 3.0 8.0 0.00 0.00 0.00 51 1013.3
20260901165915 89 126 2.0 7.0 0.00 0.00 0.00 53 1013.4
20260901165417 89 230 3.0 7.0 0.00 0.00 0.00 54 1013.4
20260901164915 89 178 4.0 10.0 0.00 0.00 0.00 53 1013.5
20260901164415 89 170 2.0 10.0 0.00 0.00 0.00 53 1013.4
20260901163415 89 185 4.0 6.0 0.00 0.00 0.00 53 1013.4
20260901162914 89 137 2.0 8.0 0.00 0.00 0.00 54 1013.5
20260901162415 88 101 4.0 8.0 0.00 0.00 0.00 53 1013.4
20260901161415 88 225 3.0 6.0 0.00 0.00 0.00 56 1013.6
20260901160914 88 230 2.0 9.0 0.00 0.00 0.00 55 1013.5
20260901160414 88 162 3.0 9.0 0.00 0.00 0.00 53 1013.5
20260901155914 87 265 2.0 6.0 0.00 0.00 0.00 60 1013.4
20260901155415 87 254 3.0 6.0 0.00 0.00 0.00 55 1013.3
20260901154913 87 190 3.0 5.0 0.00 0.00 0.00 60 1013.3
20260901153913 86 221 2.0 5.0 0.00 0.00 0.00 57 1013.4
20260901153413 86 194 2.0 5.0 0.00 0.00 0.00 56 1013.4
20260901152413 85 167 2.0 5.0 0.00 0.00 0.00 58 1013.3
20260901150912 85 196 2.0 6.0 0.00 0.00 0.00 63 1013.4
20260901150412 84 234 2.0 7.0 0.00 0.00 0.00 62 1013.4
20260901145413 84 238 3.0 7.0 0.00 0.00 0.00 63 1013.5
20260901144912 84 245 4.0 7.0 0.00 0.00 0.00 64 1013.5
20260901144411 83 196 3.0 7.0 0.00 0.00 0.00 63 1013.6
20260901143412 83 193 2.0 5.0 0.00 0.00 0.00 65 1013.6
20260901142911 83 168 2.0 5.0 0.00 0.00 0.00 66 1013.7
20260901142411 83 153 3.0 5.0 0.00 0.00 0.00 69 1013.6
20260901141911 82 167 2.0 5.0 0.00 0.00 0.00 70 1013.7
20260901141411 82 146 2.0 5.0 0.00 0.00 0.00 71 1013.8
20260901140911 81 165 2.0 5.0 0.00 0.00 0.00 72 1013.8
20260901135410 80 137 2.0 5.0 0.00 0.00 0.00 75 1013.9
20260901134908 79 178 2.0 4.0 0.00 0.00 0.00 77 1013.9
20260901134409 79 186 2.0 3.0 0.00 0.00 0.00 78 1013.8
20260901133909 78 188 2.0 4.0 0.00 0.00 0.00 80 1013.7
20260901133408 78 126 1.0 4.0 0.00 0.00 0.00 82 1013.7
20260901131907 76 137 1.0 3.0 0.00 0.00 0.00 88 1013.7
20260901131406 75 146 1.0 3.0 0.00 0.00 0.00 88 1013.8
20260901130407 74 265 0.0 2.0 0.00 0.00 0.00 88 1013.8
20260901125405 74 93 2.0 3.0 0.00 0.00 0.00 89 1013.7
20260901124906 73 126 1.0 2.0 0.00 0.00 0.00 89 1013.6
20260901124406 73 51 0.0 2.0 0.00 0.00 0.00 89 1013.7
20260901123905 73 68 0.0 2.0 0.00 0.00 0.00 89 1013.6
20260901123405 73 126 0.0 2.0 0.00 0.00 0.00 89 1013.5
20260901122905 73 61 1.0 2.0 0.00 0.00 0.00 89 1013.5
20260901122404 73 334 1.0 2.0 0.00 0.00 0.00 89 1013.3
20260901121906 73 247 0.0 2.0 0.00 0.00 0.00 89 1013.0
20260901121404 72 51 1.0 2.0 0.00 0.00 0.00 89 1013.0
20260901120904 72 93 0.0 3.0 0.00 0.00 0.00 89 1012.9
20260901120403 72 120 1.0 3.0 0.00 0.00 0.00 90 1012.8
20260901115858 73 120 1.0 3.0 0.00 0.00 0.00 90 1012.7
20260901114859 73 111 1.0 3.0 0.00 0.00 0.00 90 1012.8
20260901114400 73 120 1.0 3.0 0.00 0.00 0.00 90 1012.7
20260901113859 73 132 2.0 3.0 0.00 0.00 0.00 90 1012.8
20260901113358 73 105 2.0 3.0 0.00 0.00 0.00 90 1012.8
20260901112858 73 146 2.0 3.0 0.00 0.00 0.00 90 1012.9
20260901112357 73 164 2.0 4.0 0.00 0.00 0.00 90 1012.9
20260901111358 73 120 1.0 2.0 0.00 0.00 0.00 90 1013.0
20260901110858 74 265 0.0 1.0 0.00 0.00 0.00 90 1013.0
20260901110357 74 93 0.0 2.0 0.00 0.00 0.00 90 1013.1
20260901105853 74 137 0.0 2.0 0.00 0.00 0.00 90 1013.1
20260901105352 74 162 0.0 3.0 0.00 0.00 0.00 90 1013.1
20260901104852 74 137 1.0 4.0 0.00 0.00 0.00 90 1013.1
20260901104353 74 144 2.0 4.0 0.00 0.00 0.00 90 1013.0
20260901103352 74 153 2.0 4.0 0.00 0.00 0.00 90 1013.1
20260901102351 74 121 1.0 3.0 0.00 0.00 0.00 90 1013.1
20260901101353 74 108 2.0 4.0 0.00 0.00 0.00 90 1013.1
20260901100852 74 133 2.0 4.0 0.00 0.00 0.00 90 1013.1
20260901100352 74 162 1.0 3.0 0.00 0.00 0.00 90 1013.1
20260901095852 74 120 1.0 3.0 0.00 0.00 0.00 90 1013.3
20260901095352 73 120 1.0 3.0 0.00 0.00 0.00 90 1013.3
20260901094851 73 120 0.0 2.0 0.00 0.00 0.00 90 1013.4
20260901094351 73 9 0.0 1.0 0.00 0.00 0.00 90 1013.5
20260901093851 73 196 0.0 1.0 0.00 0.00 0.00 90 1013.5
20260901093352 73 221 0.0 1.0 0.00 0.00 0.00 90 1013.5
20260901092851 73 221 0.0 1.0 0.00 0.00 0.00 90 1013.4
20260901092351 73 9 0.0 1.0 0.00 0.00 0.00 90 1013.5
20260901091836 73 334 1.0 2.0 0.00 0.00 0.00 90 1013.6
20260901091336 73 137 1.0 2.0 0.00 0.00 0.00 90 1013.5
20260901090326 73 111 1.0 2.0 0.00 0.00 0.00 90 1013.5
20260901085826 73 178 1.0 2.0 0.00 0.00 0.00 90 1013.4
20260901085327 73 153 1.0 2.0 0.00 0.00 0.00 90 1013.4
20260901084825 73 9 0.0 2.0 0.00 0.00 0.00 90 1013.5
20260901084325 73 309 1.0 2.0 0.00 0.00 0.00 90 1013.5
20260901083825 73 325 1.0 2.0 0.00 0.00 0.00 90 1013.5
20260901083325 73 22 1.0 1.0 0.00 0.00 0.00 90 1013.4
20260901082325 73 325 0.0 1.0 0.00 0.00 0.00 90 1013.4
20260901081825 74 26 0.0 1.0 0.00 0.00 0.00 90 1013.3
20260901081325 74 137 0.0 1.0 0.00 0.00 0.00 90 1013.4
20260901080824 74 120 0.0 1.0 0.00 0.00 0.00 90 1013.5
20260901080324 74 67 0.0 1.0 0.00 0.00 0.00 90 1013.5
20260901075824 74 51 0.0 2.0 0.00 0.00 0.00 90 1013.5
20260901075324 74 205 0.0 2.0 0.00 0.00 0.00 90 1013.4
20260901074824 74 238 1.0 3.0 0.00 0.00 0.00 90 1013.5
20260901074325 74 247 2.0 3.0 0.00 0.00 0.00 90 1013.6
20260901073824 74 232 1.0 3.0 0.00 0.00 0.00 90 1013.6
20260901073324 74 119 1.0 3.0 0.00 0.00 0.00 90 1013.6
20260901072823 74 93 1.0 3.0 0.00 0.00 0.00 90 1013.7
20260901072323 74 51 0.0 3.0 0.00 0.00 0.00 90 1013.8
20260901071822 74 257 2.0 3.0 0.00 0.00 0.00 90 1013.6
20260901071322 74 9 1.0 3.0 0.00 0.00 0.00 90 1013.7
20260901070823 74 51 1.0 6.0 0.00 0.00 0.00 90 1013.7
20260901070322 74 41 2.0 8.0 0.00 0.00 0.00 90 1013.8
20260901065822 74 269 2.0 8.0 0.00 0.00 0.00 90 1013.9
20260901065324 74 309 1.0 3.0 0.00 0.00 0.00 90 1013.6
20260901064822 73 61 2.0 3.0 0.00 0.00 0.00 90 1013.8
20260901063822 73 19 1.0 2.0 0.00 0.00 0.00 90 1013.7
20260901063322 74 9 0.0 2.0 0.00 0.00 0.00 90 1013.8
20260901062822 74 205 0.0 1.0 0.00 0.00 0.00 90 1013.8
20260901062323 74 238 0.0 1.0 0.00 0.00 0.00 90 1013.9
20260901061311 74 221 1.0 1.0 0.00 0.00 0.00 90 1013.9
20260901060811 74 178 0.0 1.0 0.00 0.00 0.00 90 1013.9
20260901060311 74 265 0.0 1.0 0.00 0.00 0.00 90 1013.9
20260901055811 74 265 0.0 1.0 0.00 0.00 0.00 89 1014.0
20260901055311 74 9 1.0 1.0 0.00 0.00 0.00 90 1013.9
20260901054811 74 265 0.0 1.0 0.00 0.00 0.00 90 1014.1
20260901054311 74 265 0.0 1.0 0.00 0.00 0.00 89 1014.0
20260901053810 74 309 0.0 1.0 0.00 0.00 0.00 89 1014.0
20260901053310 75 309 0.0 1.0 0.00 0.00 0.00 89 1014.1
20260901052810 75 9 0.0 1.0 0.00 0.00 0.00 89 1014.1
20260901052307 75 9 1.0 1.0 0.00 0.00 0.00 89 1014.1
20260901051806 75 309 0.0 1.0 0.00 0.00 0.00 89 1014.0
20260901051300 75 93 0.0 1.0 0.00 0.00 0.00 89 1014.0
20260901050754 75 291 0.0 1.0 0.00 0.00 0.00 89 1013.9
20260901050248 75 309 0.0 1.0 0.00 0.00 0.00 89 1013.9
20260901045749 75 51 0.0 1.0 0.00 0.00 0.00 89 1013.9
20260901045243 75 334 1.0 1.0 0.00 0.00 0.00 89 1014.0
20260901044737 75 26 0.0 1.0 0.00 0.00 0.00 89 1013.9
20260901044238 75 309 0.0 1.0 0.00 0.00 0.00 89 1014.0
20260901043738 76 221 0.0 1.0 0.00 0.00 0.00 89 1013.9
20260901043238 76 309 0.0 1.0 0.00 0.00 0.00 89 1013.8
20260901042733 76 178 0.0 1.0 0.00 0.00 0.00 89 1014.0
20260901042232 76 309 0.0 1.0 0.00 0.00 0.00 89 1013.9
20260901041732 76 178 1.0 1.0 0.00 0.00 0.00 89 1014.0
20260901040722 76 178 0.0 2.0 0.00 0.00 0.00 88 1014.0
20260901040222 76 165 1.0 2.0 0.00 0.00 0.00 88 1014.0
20260901035222 76 221 1.0 2.0 0.00 0.00 0.00 88 1013.7
20260901034721 76 325 0.0 1.0 0.00 0.00 0.00 88 1013.7
20260901033716 76 26 1.0 2.0 0.00 0.00 0.00 88 1013.6
20260901033215 77 9 1.0 2.0 0.00 0.00 0.00 88 1013.7
20260901032716 77 325 0.0 2.0 0.00 0.00 0.00 88 1013.7
20260901032215 77 265 0.0 2.0 0.00 0.00 0.00 88 1013.5
20260901031715 77 119 1.0 2.0 0.00 0.00 0.00 87 1013.5
20260901031214 77 9 0.0 2.0 0.00 0.00 0.00 87 1013.5
20260901030714 77 137 1.0 2.0 0.00 0.00 0.00 87 1013.5
20260901025716 78 309 0.0 1.0 0.00 0.00 0.00 87 1013.5
20260901025215 78 265 0.0 1.0 0.00 0.00 0.00 87 1013.4
20260901024714 78 265 0.0 1.0 0.00 0.00 0.00 87 1013.4
20260901024214 78 221 0.0 1.0 0.00 0.00 0.00 86 1013.3
20260901023715 78 221 0.0 1.0 0.00 0.00 0.00 86 1013.3
20260901023213 78 238 0.0 1.0 0.00 0.00 0.00 86 1013.3
20260901022713 78 193 0.0 1.0 0.00 0.00 0.00 86 1013.1
20260901022214 79 309 0.0 1.0 0.00 0.00 0.00 86 1013.1
20260901020712 79 137 0.0 2.0 0.00 0.00 0.00 85 1012.9
20260901015712 80 205 1.0 2.0 0.00 0.00 0.00 84 1012.7
20260901015212 80 212 2.0 2.0 0.00 0.00 0.00 84 1012.7
20260901014211 80 265 0.0 1.0 0.00 0.00 0.00 82 1012.6
20260901013711 80 221 0.0 1.0 0.00 0.00 0.00 82 1012.6
20260901013206 81 9 0.0 1.0 0.00 0.00 0.00 81 1012.6
20260901012707 81 9 0.0 1.0 0.00 0.00 0.00 81 1012.6
20260901011651 82 291 0.0 1.0 0.00 0.00 0.00 81 1012.6
20260901010650 83 212 1.0 2.0 0.00 0.00 0.00 80 1012.7
20260901005649 83 41 0.0 1.0 0.00 0.00 0.00 80 1012.7
20260901005149 84 221 0.0 2.0 0.00 0.00 0.00 79 1012.7
20260901004649 84 41 1.0 2.0 0.00 0.00 0.00 78 1012.6
20260901004149 84 34 0.0 2.0 0.00 0.00 0.00 78 1012.7
20260901003148 84 26 0.0 2.0 0.00 0.00 0.00 76 1012.6
20260901002647 85 51 0.0 1.0 0.00 0.00 0.00 76 1012.9
20260901002149 85 119 1.0 2.0 0.00 0.00 0.00 75 1012.8
20260901001642 85 111 1.0 2.0 0.00 0.00 0.00 74 1012.7
20260901001142 86 41 0.0 2.0 0.00 0.00 0.00 74 1012.7
20260901000142 86 93 1.0 2.0 0.00 0.00 0.00 72 1012.8
20260831235642 87 137 1.0 2.0 0.00 0.00 0.00 71 1012.7
20260831235141 87 178 1.0 2.0 0.00 0.00 0.00 71 1012.8
20260831234641 87 178 0.0 2.0 0.00 0.00 0.00 68 1012.7
20260831234141 87 9 0.0 3.0 0.00 0.00 0.00 67 1012.7
20260831233642 87 51 1.0 3.0 0.00 0.00 0.00 69 1012.7
20260831233140 87 282 1.0 2.0 0.00 0.00 0.00 74 1012.8
20260831232640 87 250 0.0 2.0 0.00 0.00 0.00 72 1012.9
20260831232140 87 221 0.0 2.0 0.00 0.00 0.00 73 1012.8
20260831231639 87 250 1.0 3.0 0.00 0.00 0.00 73 1012.7
20260831231140 87 196 1.0 3.0 0.00 0.00 0.00 73 1012.8
20260831230639 87 26 0.0 3.0 0.00 0.00 0.00 72 1012.7
20260831230139 87 247 1.0 3.0 0.00 0.00 0.00 70 1012.8
20260831225138 88 265 1.0 4.0 0.00 0.00 0.00 70 1012.7
20260831224638 88 265 0.0 3.0 0.00 0.00 0.00 69 1012.8
20260831223638 88 265 1.0 3.0 0.00 0.00 0.00 67 1012.7
20260831222638 89 323 2.0 5.0 0.00 0.00 0.00 66 1012.8
20260831222138 89 309 1.0 5.0 0.00 0.00 0.00 66 1012.9
20260831221637 89 334 1.0 5.0 0.00 0.00 0.00 66 1013.0
20260831221137 89 41 1.0 5.0 0.00 0.00 0.00 66 1012.9
20260831220633 89 20 2.0 4.0 0.00 0.00 0.00 66 1012.9
20260831215634 89 250 2.0 3.0 0.00 0.00 0.00 66 1012.9
20260831215132 89 309 1.0 6.0 0.00 0.00 0.00 65 1013.0
20260831214631 89 250 2.0 7.0 0.00 0.00 0.00 66 1013.0
20260831214131 89 265 1.0 7.0 0.00 0.00 0.00 64 1013.0
20260831213631 89 275 2.0 6.0 0.00 0.00 0.00 64 1013.0
20260831213132 89 265 3.0 8.0 0.00 0.00 0.00 63 1013.3
20260831212631 90 261 3.0 9.0 0.00 0.00 0.00 61 1013.1
20260831212131 90 217 4.0 9.0 0.00 0.00 0.00 57 1013.1
20260831211630 92 241 5.0 8.0 0.00 0.00 0.00 58 1013.1
20260831211131 92 245 5.0 10.0 0.00 0.00 0.00 61 1013.1
20260831210131 93 238 4.0 9.0 0.00 0.00 0.00 60 1013.1
20260831205630 92 236 5.0 9.0 0.00 0.00 0.00 61 1013.3
20260831205130 92 257 3.0 11.0 0.00 0.00 0.00 65 1013.3
20260831204630 92 338 4.0 11.0 0.00 0.00 0.00 61 1013.3
20260831204129 92 9 2.0 9.0 0.00 0.00 0.00 65 1013.4
20260831203630 92 265 4.0 10.0 0.00 0.00 0.00 62 1013.4
20260831202629 91 265 4.0 8.0 0.00 0.00 0.00 63 1013.6
20260831202129 91 225 3.0 9.0 0.00 0.00 0.00 61 1013.5
20260831201629 91 295 4.0 10.0 0.00 0.00 0.00 58 1013.6
20260831201130 91 261 4.0 10.0 0.00 0.00 0.00 59 1013.5
20260831200628 91 269 4.0 8.0 0.00 0.00 0.00 65 1013.6
20260831200129 90 257 5.0 8.0 0.00 0.00 0.00 63 1013.6
20260831195128 92 227 6.0 11.0 0.00 0.00 0.00 57 1013.6
20260831194627 93 44 4.0 8.0 0.00 0.00 0.00 61 1013.5
20260831194127 92 250 2.0 9.0 0.00 0.00 0.00 61 1013.6
20260831193627 92 241 5.0 9.0 0.00 0.00 0.00 65 1013.5
20260831193126 91 234 3.0 8.0 0.00 0.00 0.00 64 1013.6
20260831192627 91 9 1.0 9.0 0.00 0.00 0.00 61 1013.5
20260831192126 92 209 3.0 9.0 0.00 0.00 0.00 60 1013.4
20260831191626 92 300 2.0 6.0 0.00 0.00 0.00 65 1013.5
20260831191128 91 338 2.0 7.0 0.00 0.00 0.00 65 1013.5
20260831190626 90 284 3.0 7.0 0.00 0.00 0.00 65 1013.5
20260831190126 90 228 4.0 7.0 0.00 0.00 0.00 66 1013.5
20260831185626 90 342 2.0 7.0 0.00 0.00 0.00 67 1013.5
20260831185125 89 282 2.0 7.0 0.00 0.00 0.00 70 1013.6
20260831184625 89 340 2.0 7.0 0.00 0.00 0.00 69 1013.5
20260831184125 89 221 2.0 8.0 0.00 0.00 0.00 65 1013.5
20260831183626 89 208 2.0 8.0 0.00 0.00 0.00 67 1013.6
20260831183121 88 254 3.0 8.0 0.00 0.00 0.00 68 1013.7
20260831182120 88 93 2.0 6.0 0.00 0.00 0.00 68 1013.6
20260831181619 87 340 2.0 4.0 0.00 0.00 0.00 68 1013.5
20260831181122 87 250 2.0 7.0 0.00 0.00 0.00 71 1013.6
20260831180620 86 265 2.0 7.0 0.00 0.00 0.00 73 1013.6
20260831180119 85 13 2.0 6.0 0.00 0.00 0.00 74 1013.6
20260831175619 85 273 2.0 7.0 0.00 0.00 0.00 71 1013.7
20260831174619 85 252 3.0 7.0 0.00 0.00 0.00 71 1013.8
20260831174118 85 255 3.0 7.0 0.00 0.00 0.00 71 1013.8
20260831173619 85 282 3.0 7.0 0.00 0.00 0.00 73 1013.6
20260831173118 85 257 3.0 8.0 0.00 0.00 0.00 72 1013.6
20260831172617 85 261 4.0 8.0 0.00 0.00 0.00 72 1013.7